• In Österreich
  • Länderverzeichnis
  • Für 7 Tage
  • Wassertemperatur
  • Satellitenkarten
  • Wetterkarte
  • News
  • Widgets
  • user-avatar
    Anmelden

    Stündliche Wetter Quito

    Heute, 14 August, Dienstag

    Zeit Temperatur Niederschläge Wind Luftdruck Luftfeuchtigkeit
    00:00 +18°C° 0 mm 1 m/S 623 mmHg 23%
    01:00 +15°C° 0 mm 1 m/S 623 mmHg 28%
    02:00 +15°C° 0 mm 1 m/S 623 mmHg 30%
    03:00 +14°C° 0 mm 1 m/S 623 mmHg 31%
    04:00 +13°C° 0 mm 1 m/S 623 mmHg 33%
    05:00 +14°C° 0 mm 1 m/S 623 mmHg 33%
    06:00 +15°C° 0 mm 1 m/S 623 mmHg 33%
    07:00 +16°C° 0 mm 1 m/S 624 mmHg 30%
    08:00 +20°C° 0 mm 1 m/S 625 mmHg 26%
    09:00 +24°C° 0 mm 2 m/S 626 mmHg 21%
    10:00 +27°C° 0 mm 3 m/S 627 mmHg 16%
    11:00 +28°C° 0 mm 3 m/S 627 mmHg 15%
    12:00 +30°C° 0 mm 3 m/S 627 mmHg 13%
    13:00 +31°C° 0 mm 2 m/S 626 mmHg 12%
    14:00 +31°C° 0 mm 2 m/S 626 mmHg 12%
    15:00 +30°C° 0 mm 2 m/S 625 mmHg 12%
    16:00 +30°C° 0 mm 2 m/S 625 mmHg 12%
    17:00 +28°C° 0 mm 1 m/S 624 mmHg 14%
    18:00 +25°C° 0 mm 1 m/S 624 mmHg 17%
    19:00 +22°C° 0 mm 1 m/S 623 mmHg 19%
    20:00 +22°C° 0 mm 1 m/S 623 mmHg 20%
    21:00 +21°C° 0 mm 1 m/S 624 mmHg 20%
    22:00 +21°C° 0 mm 1 m/S 624 mmHg 21%
    23:00 +20°C° 0 mm 1 m/S 624 mmHg 22%

    Morgen, 15 August, Mittwoch

    Zeit Temperatur Niederschläge Wind Luftdruck Luftfeuchtigkeit
    00:00 +17°C° 0 mm 0 m/S 624 mmHg 23%
    01:00 +17°C° 0 mm 0 m/S 623 mmHg 24%
    02:00 +16°C° 0 mm 0 m/S 623 mmHg 25%
    03:00 +15°C° 0 mm 0 m/S 623 mmHg 26%
    04:00 +15°C° 0 mm 0 m/S 623 mmHg 27%
    05:00 +16°C° 0 mm 1 m/S 623 mmHg 27%
    06:00 +16°C° 0 mm 1 m/S 624 mmHg 27%
    07:00 +18°C° 0 mm 1 m/S 624 mmHg 28%
    08:00 +21°C° 0 mm 1 m/S 625 mmHg 24%
    09:00 +25°C° 0 mm 1 m/S 626 mmHg 20%
    10:00 +28°C° 0 mm 2 m/S 627 mmHg 16%
    11:00 +29°C° 0 mm 2 m/S 627 mmHg 16%
    12:00 +31°C° 0 mm 2 m/S 627 mmHg 16%
    13:00 +33°C° 0 mm 3 m/S 627 mmHg 16%
    14:00 +31°C° 0 mm 2 m/S 626 mmHg 16%
    15:00 +31°C° 0 mm 2 m/S 625 mmHg 17%
    16:00 +31°C° 0 mm 2 m/S 625 mmHg 17%
    17:00 +29°C° 0 mm 2 m/S 624 mmHg 20%
    18:00 +26°C° 0 mm 1 m/S 624 mmHg 23%
    19:00 +24°C° 0 mm 1 m/S 624 mmHg 26%
    20:00 +23°C° 0 mm 1 m/S 624 mmHg 27%
    21:00 +23°C° 0 mm 1 m/S 624 mmHg 28%
    22:00 +22°C° 0 mm 1 m/S 624 mmHg 30%
    23:00 +21°C° 0 mm 1 m/S 624 mmHg 30%

    übermorgen, 16 August, Donnerstag

    Zeit Temperatur Niederschläge Wind Luftdruck Luftfeuchtigkeit
    00:00 +21°C° 0 mm 1 m/S 624 mmHg 31%
    01:00 +20°C° 0 mm 1 m/S 623 mmHg 32%
    02:00 +20°C° 0 mm 1 m/S 623 mmHg 33%
    03:00 +20°C° 0 mm 1 m/S 623 mmHg 34%
    04:00 +19°C° 0 mm 1 m/S 622 mmHg 35%
    05:00 +19°C° 0 mm 1 m/S 623 mmHg 36%
    06:00 +19°C° 0 mm 1 m/S 623 mmHg 36%
    07:00 +19°C° 0 mm 1 m/S 624 mmHg 37%
    08:00 +21°C° 0 mm 2 m/S 625 mmHg 31%
    09:00 +26°C° 0 mm 3 m/S 626 mmHg 25%
    10:00 +29°C° 0 mm 4 m/S 627 mmHg 19%
    11:00 +30°C° 0 mm 4 m/S 627 mmHg 18%
    12:00 +31°C° 0 mm 3 m/S 626 mmHg 16%
    13:00 +33°C° 0 mm 3 m/S 626 mmHg 15%
    14:00 +33°C° 0 mm 3 m/S 625 mmHg 14%
    15:00 +32°C° 0 mm 2 m/S 625 mmHg 14%
    16:00 +32°C° 0 mm 2 m/S 624 mmHg 14%
    17:00 +30°C° 0 mm 1 m/S 624 mmHg 16%
    18:00 +27°C° 0 mm 1 m/S 623 mmHg 19%
    19:00 +25°C° 0 mm 1 m/S 623 mmHg 21%
    20:00 +24°C° 0 mm 1 m/S 623 mmHg 22%
    21:00 +23°C° 0 mm 1 m/S 624 mmHg 22%
    22:00 +23°C° 0 mm 1 m/S 624 mmHg 23%
    23:00 +22°C° 0 mm 1 m/S 624 mmHg 24%

    17 August, Freitag

    Zeit Temperatur Niederschläge Wind Luftdruck Luftfeuchtigkeit
    00:00 +22°C° 0 mm 1 m/S 623 mmHg 25%
    01:00 +21°C° 0 mm 1 m/S 623 mmHg 26%
    02:00 +20°C° 0 mm 1 m/S 623 mmHg 28%
    03:00 +17°C° 0 mm 0 m/S 622 mmHg 29%
    04:00 +16°C° 0 mm 0 m/S 622 mmHg 31%
    05:00 +17°C° 0 mm 0 m/S 622 mmHg 31%
    06:00 +19°C° 0 mm 1 m/S 623 mmHg 31%
    07:00 +19°C° 0 mm 1 m/S 623 mmHg 31%
    08:00 +23°C° 0 mm 2 m/S 625 mmHg 25%
    09:00 +26°C° 0 mm 3 m/S 626 mmHg 20%
    10:00 +30°C° 0 mm 4 m/S 627 mmHg 14%
    11:00 +32°C° 0 mm 4 m/S 626 mmHg 13%
    12:00 +33°C° 0 mm 3 m/S 626 mmHg 13%
    13:00 +34°C° 0 mm 3 m/S 625 mmHg 12%
    14:00 +34°C° 0 mm 3 m/S 624 mmHg 12%
    15:00 +34°C° 0 mm 2 m/S 624 mmHg 12%
    16:00 +32°C° 0 mm 2 m/S 623 mmHg 12%
    17:00 +30°C° 0 mm 2 m/S 623 mmHg 14%
    18:00 +27°C° 0 mm 1 m/S 623 mmHg 16%
    19:00 +25°C° 0 mm 1 m/S 622 mmHg 18%
    20:00 +24°C° 0 mm 1 m/S 622 mmHg 19%
    21:00 +23°C° 0 mm 1 m/S 623 mmHg 19%
    22:00 +23°C° 0 mm 1 m/S 623 mmHg 20%
    23:00 +22°C° 0 mm 1 m/S 623 mmHg 21%

    18 August, Samstag

    Zeit Temperatur Niederschläge Wind Luftdruck Luftfeuchtigkeit
    00:00 +21°C° 0 mm 1 m/S 622 mmHg 22%
    01:00 +21°C° 0 mm 1 m/S 622 mmHg 23%
    02:00 +20°C° 0 mm 1 m/S 621 mmHg 25%
    03:00 +19°C° 0 mm 1 m/S 621 mmHg 27%
    04:00 +18°C° 0 mm 1 m/S 621 mmHg 28%
    05:00 +18°C° 0 mm 1 m/S 621 mmHg 29%
    06:00 +19°C° 0 mm 1 m/S 622 mmHg 29%
    07:00 +19°C° 0 mm 1 m/S 623 mmHg 29%
    08:00 +23°C° 0 mm 2 m/S 624 mmHg 24%
    09:00 +26°C° 0 mm 3 m/S 625 mmHg 18%
    10:00 +30°C° 0 mm 4 m/S 626 mmHg 13%
    11:00 +32°C° 0 mm 4 m/S 626 mmHg 12%
    12:00 +33°C° 0 mm 4 m/S 625 mmHg 11%
    13:00 +34°C° 0 mm 3 m/S 625 mmHg 10%
    14:00 +34°C° 0 mm 3 m/S 624 mmHg 10%
    15:00 +34°C° 0 mm 2 m/S 624 mmHg 10%
    16:00 +32°C° 0 mm 2 m/S 623 mmHg 11%
    17:00 +30°C° 0 mm 2 m/S 623 mmHg 13%
    18:00 +27°C° 0 mm 1 m/S 623 mmHg 15%
    19:00 +24°C° 0 mm 1 m/S 622 mmHg 17%
    20:00 +24°C° 0 mm 1 m/S 622 mmHg 18%
    21:00 +23°C° 0 mm 1 m/S 623 mmHg 18%
    22:00 +22°C° 0 mm 1 m/S 623 mmHg 19%
    23:00 +21°C° 0 mm 1 m/S 622 mmHg 22%

    19 August, Sonntag

    Zeit Temperatur Niederschläge Wind Luftdruck Luftfeuchtigkeit
    00:00 +21°C° 0 mm 1 m/S 622 mmHg 24%
    01:00 +20°C° 0 mm 1 m/S 622 mmHg 26%
    02:00 +19°C° 0 mm 1 m/S 622 mmHg 31%
    03:00 +18°C° 0 mm 1 m/S 621 mmHg 36%
    04:00 +18°C° 0 mm 1 m/S 621 mmHg 41%
    05:00 +18°C° 0 mm 1 m/S 622 mmHg 39%
    06:00 +18°C° 0 mm 1 m/S 622 mmHg 37%
    07:00 +18°C° 0 mm 1 m/S 623 mmHg 36%
    08:00 +22°C° 0 mm 1 m/S 624 mmHg 29%
    09:00 +26°C° 0 mm 2 m/S 625 mmHg 22%
    10:00 +29°C° 0 mm 3 m/S 626 mmHg 15%
    11:00 +31°C° 0 mm 3 m/S 625 mmHg 14%
    12:00 +33°C° 0 mm 3 m/S 625 mmHg 13%
    13:00 +34°C° 0 mm 3 m/S 625 mmHg 12%
    14:00 +34°C° 0 mm 3 m/S 624 mmHg 12%
    15:00 +34°C° 0 mm 2 m/S 624 mmHg 12%
    16:00 +34°C° 0 mm 2 m/S 623 mmHg 12%
    17:00 +30°C° 0 mm 2 m/S 623 mmHg 14%
    18:00 +27°C° 0 mm 1 m/S 623 mmHg 17%
    19:00 +25°C° 0 mm 1 m/S 622 mmHg 20%
    20:00 +24°C° 0 mm 1 m/S 623 mmHg 22%
    21:00 +23°C° 0 mm 1 m/S 623 mmHg 25%
    22:00 +22°C° 0 mm 1 m/S 623 mmHg 28%
    23:00 +20°C° 0 mm 2 m/S 623 mmHg 35%
    Mehr zeigen